SCP
0 0 0 0 0 0 0 0 0 0 0 0 0 0 0 0 0 0 0 1 1 1 1 3 4 4 3 2 1 1 2 2 2 2 2 1 1 1 0 0 1 2 2 1
0 0 0 0 0 0 0 0 0 0 0 0 0 0 0 0 0 0 0 0 1 1 2 3 4 4 3 2 1 2 2 2 2 2 1 1 1 1 0 0 1 1 1 1
0 0 0 0 0 0 0 0 0 0 0 0 0 0 0 0 0 0 0 0 0 1 2 3 4 3 2 1 1 2 2 2 2 2 1 1 1 0 0 0 0 1 1 1
0 0 0 0 0 0 0 0 0 0 0 0 0 0 0 0 0 0 0 0 0 1 1 2 3 2 2 2 2 2 2 2 2 1 1 1 1 0 0 0 0 1 1 1
0 0 0 0 0 0 0 0 0 0 0 0 0 0 0 0 0 0 0 0 0 1 1 2 2 2 2 2 2 2 2 2 1 1 1 0 0 0 0 0 0 0 1 1
0 0 0 0 0 0 0 0 0 0 0 0 0 0 0 0 0 0 0 0 0 0 1 1 2 2 2 1 2 2 1 1 1 1 0 0 0 0 0 0 0 0 0 1
0 0 0 0 0 0 0 0 0 0 0 0 0 0 0 0 0 0 0 0 0 0 1 1 1 1 1 1 1 2 2 1 1 1 0 0 0 0 0 0 0 0 0 0
0 0 0 0 0 0 0 0 0 0 0 0 0 0 0 0 0 0 0 0 0 0 1 1 1 1 1 1 1 1 1 1 1 0 0 0 0 0 0 0 0 0 0 0
0 0 0 0 0 0 0 0 0 0 0 0 0 0 0 0 0 0 0 0 0 0 1 1 1 1 1 1 1 1 1 1 0 0 0 0 0 0 0 0 0 0 0 0
0 0 0 0 0 0 0 0 0 0 0 0 0 0 0 0 0 0 0 0 0 0 1 1 1 1 1 1 1 0 0 0 0 0 0 0 0 0 0 0 0 0 0 0
0 0 0 0 0 0 0 0 0 0 0 0 0 0 0 0 0 0 0 0 0 1 1 1 1 1 1 1 0 0 0 0 0 0 0 0 0 0 0 0 0 0 0 0
0 0 0 0 0 0 0 0 0 0 0 0 0 0 0 0 0 0 0 0 0 1 1 1 1 1 1 1 0 0 0 0 0 0 0 0 0 0 0 0 0 0 0 0
0 0 0 0 0 0 0 0 0 0 0 0 0 0 0 0 0 0 0 0 0 0 0 0 1 1 1 0 0 0 0 0 0 0 0 0 0 0 0 0 0 0 0 0
0 0 0 0 0 0 0 0 0 0 0 0 0 0 0 0 0 0 0 0 0 0 0 0 1 1 0 0 0 0 0 0 0 0 0 0 0 0 0 0 0 0 0 0
0 0 0 0 0 0 0 0 0 0 0 0 0 0 0 0 0 0 0 0 0 0 0 0 0 0 0 0 0 0 0 0 0 0 0 0 0 0 0 0 0 0 0 0
0 0 0 0 0 0 0 0 0 0 0 0 0 0 0 0 0 0 0 0 0 0 0 0 0 0 0 0 0 0 0 0 0 0 0 0 0 0 0 0 0 0 0 0
0 0 0 0 0 0 0 0 0 0 0 0 0 0 0 0 0 0 0 0 0 0 0 0 0 0 0 0 0 0 0 0 0 0 0 0 0 0 0 0 0 0 0 0
0 0 0 0 0 0 0 0 0 0 0 0 0 0 0 0 0 0 0 0 0 0 0 0 0 0 0 0 0 0 0 0 0 0 0 0 0 0 0 0 0 0 0 0
0 0 0 0 0 0 0 0 0 0 0 0 0 0 0 0 0 0 0 0 0 0 0 0 0 0 0 0 0 0 0 0 0 0 0 0 0 0 0 0 0 0 0 0
0 0 0 0 0 0 0 0 0 0 0 0 0 0 0 0 0 0 0 0 0 0 0 0 0 0 0 0 0 0 0 0 0 0 0 0 0 0 0 0 0 0 0 0
0 0 0 0 0 0 0 0 0 0 0 0 0 0 0 0 0 0 0 0 0 0 0 0 0 0 0 0 0 0 0 0 0 0 0 0 0 0 0 0 0 0 0 0
0 0 0 0 0 0 0 0 0 0 0 0 0 0 0 0 0 0 0 0 0 0 0 0 0 0 0 0 0 0 0 0 0 0 0 0 0 0 0 0 0 0 0 0
0 0 0 0 0 0 0 0 0 0 0 0 0 0 0 0 0 0 0 0 0 0 0 0 0 0 0 0 0 0 0 0 0 0 0 0 0 0 0 0 1 1 0 0
0 0 0 0 0 0 0 0 0 0 0 0 0 0 0 0 0 0 0 0 0 0 0 0 0 0 0 0 0 0 0 0 0 0 0 0 0 0 1 1 1 1 0 0
0 0 0 0 0 0 0 0 0 0 0 0 0 0 0 0 0 0 0 0 0 0 0 0 0 0 0 0 0 0 0 0 0 0 0 0 1 1 1 1 1 0 0 0
0 0 0 0 0 0 0 0 0 0 0 0 0 0 0 0 0 0 0 0 0 0 0 0 0 0 0 0 0 0 0 0 0 0 1 1 1 1 1 0 0 0 0 0
Wind_Speed
2 3 0 3 4 4 2 3 6 7 5 4 7 9 9 7 4 4 3 3 3 4 5 2 1 2 1 2 3 2 2 1 1 0 1 1 0 0 0 1 0 1 1 2
3 1 4 3 2 2 2 4 5 6 5 4 7 10 8 6 4 3 4 4 4 4 4 2 1 2 2 3 3 3 3 2 1 1 1 1 1 1 1 1 1 1 2 1
2 3 2 1 1 1 4 4 5 6 7 4 4 7 4 2 1 1 2 3 3 4 4 3 2 2 2 3 3 3 3 3 2 1 0 1 1 0 1 1 1 1 1 1
1 4 2 1 2 2 5 5 5 6 4 4 1 5 5 3 3 3 4 4 3 3 2 2 2 2 2 3 2 2 3 3 2 2 2 3 2 2 1 1 1 2 1 1
2 2 1 2 4 3 5 5 5 5 3 3 2 3 7 2 4 5 5 5 3 2 2 2 3 2 1 2 2 2 2 1 1 2 3 3 2 1 1 0 0 1 1 0
3 3 1 3 4 4 3 2 2 1 1 3 5 4 6 4 5 5 5 4 3 3 2 2 2 1 1 1 1 2 2 1 1 1 2 2 3 2 1 1 0 0 1 0
5 4 3 1 3 3 2 3 3 4 2 5 3 3 7 5 4 4 5 4 3 2 2 1 2 2 1 1 0 1 2 1 1 1 0 1 2 2 2 2 1 1 1 0
1 5 3 2 1 2 1 2 3 2 3 5 3 5 6 4 3 2 2 2 1 1 1 1 2 1 1 1 0 0 1 1 1 1 0 1 1 1 1 1 1 1 1 1
2 4 3 2 1 1 1 0 1 2 2 4 5 5 5 3 5 5 3 3 2 2 2 1 1 1 1 1 1 0 0 0 0 1 1 1 1 1 0 0 0 0 0 0
3 3 4 3 2 2 2 2 2 2 0 4 6 4 4 5 5 5 4 4 3 3 3 2 2 2 2 1 1 0 0 1 0 0 0 0 1 1 0 0 0 0 0 1
2 1 4 2 0 2 1 1 1 1 2 2 4 6 2 3 3 3 4 4 3 2 2 2 2 2 1 1 1 1 1 0 0 0 0 1 1 1 1 0 0 0 1 1
2 3 2 4 3 1 2 2 3 2 3 2 3 8 3 2 3 2 3 3 3 2 2 2 2 2 2 2 2 1 1 1 0 0 0 1 1 1 1 1 1 0 0 0
3 4 2 5 3 3 1 1 2 2 1 2 3 9 3 4 4 4 3 2 3 3 3 3 2 2 3 3 3 2 1 1 1 1 1 1 1 1 0 0 1 1 0 1
4 3 4 6 6 3 4 4 2 3 3 4 7 10 9 7 6 6 4 3 2 3 3 3 3 3 3 3 2 2 2 1 1 1 1 1 0 0 0 1 1 1 1 2
3 2 3 6 6 4 5 7 5 6 7 7 8 9 12 8 6 5 4 3 3 3 4 4 4 3 3 3 3 2 2 2 1 1 1 0 0 1 1 1 2 2 1 1
2 2 1 4 3 4 6 8 7 8 7 8 9 11 9 7 4 4 4 3 4 4 4 4 4 3 3 3 3 2 2 1 1 1 1 1 1 2 2 1 2 2 2 2
2 3 1 4 5 4 7 7 7 6 6 6 8 10 6 5 5 4 3 4 4 4 4 4 5 3 3 3 2 2 2 1 1 1 1 1 1 1 1 1 2 1 1 2
5 4 2 1 4 5 8 1 4 5 7 7 7 7 5 6 5 4 3 3 4 4 5 5 4 4 3 2 2 2 1 1 1 1 0 1 1 1 1 1 1 1 1 1
4 5 3 1 2 8 8 3 3 3 7 6 7 7 6 5 4 4 3 2 4 5 5 4 3 3 2 2 1 0 1 1 0 0 0 0 1 1 1 1 1 1 1 1
2 3 3 3 3 7 7 2 1 2 6 4 4 6 5 3 4 6 4 4 4 4 3 3 2 2 2 2 1 0 0 0 1 1 1 1 1 1 1 0 0 1 1 1
2 2 3 5 5 10 6 2 3 3 7 3 3 5 4 4 6 5 4 4 4 4 3 3 2 2 2 1 1 1 1 1 2 1 1 1 1 1 1 1 0 1 1 1
8 6 6 5 5 11 4 5 6 8 3 2 4 4 4 5 5 4 4 4 4 4 4 3 2 3 2 0 1 1 1 2 0 1 1 1 1 1 1 1 1 1 1 2
7 9 7 10 10 5 5 7 5 3 4 4 3 4 4 4 4 4 4 4 3 3 4 3 2 2 2 0 1 1 2 1 1 1 1 1 1 1 1 1 1 1 1 1
5 3 4 6 9 7 6 5 5 4 5 5 4 4 3 4 4 4 3 4 3 3 3 3 2 2 2 1 0 1 1 1 2 1 1 1 1 1 1 1 1 1 1 1
6 5 4 7 7 5 6 6 6 5 4 3 3 3 3 3 3 3 3 3 3 3 3 2 2 2 2 2 1 1 1 1 1 1 1 1 1 1 1 1 1 1 2 2
6 8 8 8 7 5 6 5 4 4 5 4 3 3 2 2 3 3 3 3 3 3 3 3 2 2 2 1 1 1 1 1 2 1 1 1 1 1 1 1 1 2 0 0
Wind_Direction
32 67 254 236 210 216 234 260 268 271 273 275 258 270 279 277 265 252 247 254 259 265 272 246 242 241 219 184 172 164 142 117 142 151 155 125 141 324 347 324 244 142 144 159
45 298 253 250 256 240 253 276 277 282 281 270 264 269 268 253 234 232 238 243 261 275 284 285 275 236 199 195 180 168 171 162 178 228 239 167 150 275 258 270 275 167 158 164
162 263 273 267 312 281 271 244 255 269 303 285 279 281 260 258 244 291 278 260 273 253 251 255 261 240 203 191 186 191 187 180 176 149 78 114 106 53 354 322 321 275 181 162
281 287 313 316 286 247 264 251 259 272 296 289 266 280 269 233 263 269 271 270 268 276 276 275 280 257 206 197 182 186 185 178 155 138 186 171 169 187 246 256 279 303 228 162
282 306 335 289 271 248 247 264 264 264 248 279 264 238 274 225 257 270 268 267 271 277 266 268 274 266 224 183 163 155 148 135 149 165 195 183 170 169 150 95 53 333 317 177
267 288 248 251 276 256 267 312 317 345 99 265 245 219 274 246 241 259 265 266 273 276 271 277 294 320 356 82 118 110 113 94 118 179 183 160 151 140 130 107 182 300 306 318
330 312 301 281 320 335 35 61 14 357 342 254 256 229 253 257 251 242 250 258 268 272 269 297 319 339 358 33 82 114 124 107 101 76 129 154 152 157 167 169 198 209 233 264
346 303 306 336 227 278 310 133 151 233 259 290 300 244 259 272 312 313 278 271 307 300 282 268 271 277 279 272 282 50 116 118 113 118 194 101 121 149 173 183 202 209 218 246
168 270 301 305 294 155 89 176 194 150 308 286 273 277 301 348 360 355 343 355 348 328 311 290 299 312 287 253 245 198 160 242 153 154 142 124 102 88 131 205 10 206 183 68
159 264 294 309 1 6 139 150 85 106 251 286 294 285 290 318 323 333 340 340 327 327 322 317 320 326 302 273 277 312 178 208 232 98 110 97 103 84 105 127 191 152 92 70
130 169 310 353 217 233 48 77 106 147 185 214 286 279 268 270 290 302 309 319 316 310 307 309 316 315 320 340 345 9 1 60 49 36 289 94 87 80 57 61 338 127 98 103
147 125 274 268 265 248 181 183 154 164 256 223 245 272 308 302 309 309 312 326 326 312 305 305 313 337 358 346 347 7 353 12 336 207 128 74 77 80 65 7 343 21 88 95
137 117 12 343 338 352 332 243 179 167 167 207 227 270 315 340 338 330 328 328 328 337 334 335 341 353 348 341 355 3 350 349 1 77 90 69 69 90 92 16 352 7 68 108
116 134 179 214 234 216 264 264 227 167 200 238 239 267 296 309 311 314 321 319 322 326 328 331 336 341 337 340 351 351 348 350 13 69 106 112 84 66 32 31 18 6 59 101
105 179 242 260 264 246 245 256 232 212 216 224 256 263 277 286 287 291 301 311 325 328 331 329 328 331 335 338 340 346 351 358 22 68 83 59 28 49 52 47 44 34 54 79
97 159 309 293 284 266 267 261 238 232 234 243 266 277 279 293 298 297 299 306 309 309 312 315 318 323 320 314 318 333 338 353 37 59 54 43 46 49 51 50 51 54 59 66
142 136 115 280 316 342 280 245 208 216 221 212 237 259 296 313 302 284 289 296 292 291 296 300 298 288 286 291 305 311 310 341 35 48 43 55 61 55 50 50 50 54 68 69
147 140 152 289 10 256 248 244 197 219 243 231 249 269 275 273 281 277 269 269 282 292 295 291 290 292 295 296 308 317 337 4 35 42 45 62 70 58 45 51 46 35 66 75
157 149 148 159 257 277 289 263 188 211 270 240 242 268 284 299 320 306 286 262 259 271 277 280 280 277 288 289 285 330 358 14 40 40 161 115 100 89 65 48 25 20 61 53
93 120 140 162 208 246 255 248 178 107 284 256 232 263 282 322 303 287 307 301 290 295 301 301 298 298 293 285 253 145 259 317 279 260 214 155 129 144 168 187 356 28 51 61
143 156 186 198 227 261 256 229 130 178 255 274 255 263 264 243 249 279 307 308 302 308 314 319 319 306 285 275 152 164 221 261 267 253 162 145 160 176 176 150 119 76 70 80
176 175 194 179 212 253 219 150 187 222 255 264 270 270 264 265 280 297 308 313 319 326 328 332 334 320 318 66 128 168 242 266 265 135 139 155 168 176 153 142 132 102 108 102
200 193 188 195 216 240 196 204 223 214 235 254 256 271 269 277 286 297 304 307 311 317 318 326 329 329 338 20 153 198 254 245 159 146 167 178 168 167 166 149 139 120 126 132
243 195 200 248 259 254 251 250 250 233 235 252 255 255 256 263 277 294 304 310 315 316 314 323 335 330 325 329 283 233 249 165 152 160 166 156 154 151 127 133 143 151 165 166
220 179 207 252 270 290 267 242 245 249 251 261 264 248 240 247 275 286 296 302 307 312 315 321 314 307 306 323 318 278 218 156 160 167 164 156 153 140 128 134 167 197 202 190
196 185 192 231 232 222 255 256 234 235 248 251 253 260 263 236 251 277 286 292 300 307 314 323 326 323 316 323 317 304 277 181 161 155 144 140 139 133 114 85 14 359 321 260